Location: Holbach
(51.5399°N, 10.6036°E)
Time: 15:19:16
(UTC+00:00)

Resurs 01 Rocket - Pass Details

Date: 18 September 2020
Orbit: 633 x 645 km, 98.0° (Epoch: 22 October)

Event Time Altitude Azimuth Distance (km) Brightness Sun altitude
Exits shadow 19:19:16 36° 128° (SE) 1,020 2.1 -18.0°
Maximum altitude 19:20:48 56° 70° (ENE) 772 1.8 -18.2°
Drops below altitude 10° 19:25:11 10° 353° (N) 2,054 4.7 -18.8°
Sets 19:27:25 0° 349° (N) 2,967 5.6 -19.1°
